Theta_e
318 320 318 314 312 316 309 311 307 311 316 322 323 323 325 327 330 331 333 334 337 340 343 345 345 348 349 357 360 361 360 361
317 319 318 316 319 309 311 303 303 308 312 312 321 320 322 324 329 332 334 334 337 339 343 346 347 349 351 357 358 361 361 362
315 312 311 312 312 313 312 310 305 305 309 323 324 324 324 325 327 333 334 335 337 339 344 346 347 348 349 353 359 361 363 365
311 316 317 315 313 313 308 309 311 310 309 321 326 324 327 328 333 332 336 335 338 339 343 345 346 348 350 352 357 362 366 368
308 312 315 311 313 314 314 314 311 307 310 323 325 326 329 329 329 336 337 336 338 342 343 346 348 350 351 355 358 363 369 369
305 310 312 309 310 313 312 310 311 311 316 320 322 324 327 329 334 336 343 346 344 350 359 353 354 362 361 358 361 366 366 366
311 313 313 310 309 311 312 313 311 314 315 319 327 326 329 331 337 338 342 344 350 354 359 359 361 363 363 362 363 365 365 362
308 311 312 309 310 311 312 314 314 315 316 325 328 328 328 333 336 339 342 345 349 353 356 358 359 358 360 362 363 365 359 356
307 310 309 306 310 311 313 316 315 312 320 324 325 327 329 336 337 339 342 346 350 352 355 357 358 359 358 361 363 358 353 352
307 311 301 310 316 315 314 316 317 319 322 325 330 329 328 335 339 342 344 346 351 354 356 359 359 361 362 361 355 350 348 349
306 305 308 310 313 313 313 315 319 319 323 323 326 325 331 334 340 344 346 349 353 357 359 360 360 362 358 354 350 349 348 346
308 304 300 313 315 319 318 310 322 321 322 321 325 317 324 338 337 343 354 356 356 357 359 361 362 360 355 351 349 346 344 342
309 306 309 317 318 319 308 313 324 322 327 325 324 333 345 341 339 351 356 356 358 358 358 361 358 355 351 348 345 344 341 339
311 308 304 321 319 313 329 332 326 326 327 329 333 333 337 345 354 355 355 356 358 357 357 354 353 351 348 344 344 340 338 337
314 313 327 324 326 329 329 332 328 330 330 331 331 329 330 349 354 354 355 356 356 355 350 349 350 348 344 341 339 338 335 334
318 322 322 322 323 328 330 330 329 329 330 330 331 332 345 350 352 353 354 354 354 350 346 343 344 345 340 339 338 336 333 333
318 321 322 322 326 327 327 330 331 331 331 332 336 340 350 350 353 353 353 353 352 347 344 340 339 336 337 337 335 332 331 329
311 323 325 329 329 327 327 327 328 329 331 335 336 348 351 352 353 353 351 353 348 345 341 336 334 335 335 336 336 333 328 326
321 326 325 330 332 333 330 332 332 333 336 336 339 348 352 353 353 342 352 348 346 342 336 332 332 332 335 336 334 331 328 326
Wind_Speed
27 17 22 21 19 15 20 17 10 8 7 17 17 17 13 20 21 21 21 20 20 20 19 19 18 18 16 17 16 16 14 11
27 16 23 23 15 18 14 17 14 10 13 10 15 13 12 10 18 21 21 21 20 19 19 18 17 16 16 16 17 15 14 12
23 23 24 17 20 16 19 15 14 5 9 14 16 14 14 16 12 18 21 20 20 19 19 18 18 16 16 15 17 15 13 11
29 25 26 24 23 22 13 18 14 10 11 14 17 15 12 9 7 13 20 18 19 19 20 19 17 17 16 14 14 15 12 9
20 25 25 27 24 24 20 18 16 11 2 18 16 14 12 10 9 8 10 15 15 15 17 18 15 14 15 14 13 13 11 10
16 17 19 24 25 27 25 16 17 16 8 5 12 12 11 5 12 9 7 6 8 9 9 13 12 10 10 12 13 12 12 10
23 20 25 24 26 25 25 21 20 17 15 14 11 10 13 11 14 11 8 8 9 10 9 10 10 10 10 10 13 13 10 10
24 25 21 27 28 27 26 24 23 23 16 19 19 17 11 14 15 11 11 10 11 11 11 11 10 10 11 12 13 12 15 13
20 24 23 21 27 28 25 25 24 20 16 12 8 9 12 14 14 14 12 10 13 12 11 10 12 11 12 13 13 15 14 13
16 18 25 15 18 24 24 23 22 20 19 14 6 6 11 9 16 15 17 15 14 13 12 13 13 14 14 14 14 14 14 13
14 17 17 25 21 16 18 20 23 22 16 15 13 7 9 8 5 3 17 17 16 16 14 13 14 15 16 15 14 15 14 13
14 22 27 16 20 16 14 11 11 13 15 14 10 8 5 7 7 4 14 16 17 18 17 14 14 16 16 15 14 14 14 12
15 14 15 16 21 17 19 7 9 11 6 7 9 3 3 5 8 12 18 19 18 17 16 15 15 15 14 14 14 13 12 11
14 15 18 14 17 25 5 10 8 11 13 10 8 8 5 7 19 19 18 17 17 16 15 15 14 14 14 12 11 11 11 11
12 12 2 11 11 11 8 7 7 7 8 12 12 14 13 13 15 17 18 16 15 15 16 13 13 12 14 12 12 11 11 11
9 10 18 8 9 8 5 10 12 11 11 10 9 13 15 16 15 14 16 16 15 17 16 13 12 13 13 13 12 12 11 10
12 15 12 12 12 9 5 1 4 2 2 7 11 7 20 16 15 14 15 14 16 16 15 14 13 14 14 13 13 12 11 10
10 12 11 9 12 11 7 7 5 5 4 6 9 12 18 16 16 15 15 14 15 16 16 14 14 15 13 13 12 13 11 10
9 5 15 13 6 13 12 9 11 9 7 7 8 13 18 17 15 15 15 16 16 17 16 16 15 15 14 12 12 12 10 10
Wind_Direction
217 196 231 214 230 246 247 246 269 164 178 158 158 161 168 176 172 173 175 176 178 179 178 179 186 186 186 172 181 188 198 201
216 196 222 240 211 228 247 262 274 234 188 206 166 159 171 195 177 172 171 177 175 181 177 177 182 183 185 176 182 187 192 198
218 200 218 216 236 215 242 241 245 181 257 192 164 176 196 188 195 174 174 179 176 179 172 174 177 182 184 186 176 186 191 195
210 199 211 212 222 231 224 243 265 295 309 155 161 174 179 166 201 190 176 181 176 177 167 173 180 178 180 182 177 180 179 189
221 203 192 218 218 223 229 238 248 248 170 154 164 156 154 164 174 181 181 181 172 166 164 170 174 173 173 171 169 167 164 165
227 215 184 202 221 212 225 220 236 235 155 185 146 133 145 183 151 180 171 163 143 134 137 153 161 147 150 155 151 143 147 149
239 233 197 198 220 217 217 218 228 234 184 202 153 176 163 181 149 165 167 170 129 120 115 122 130 129 125 135 133 131 141 119
230 243 235 204 203 225 214 228 238 238 251 169 174 174 174 170 146 156 167 158 138 131 131 132 133 133 127 125 126 130 123 119
227 237 246 240 204 205 229 214 228 236 248 256 138 155 162 139 154 169 170 171 152 151 147 143 144 140 141 136 122 124 124 129
216 236 241 242 233 207 213 227 238 235 239 248 258 188 180 172 166 173 172 168 157 151 151 150 152 148 140 131 130 128 130 141
208 222 236 240 241 225 235 210 213 241 247 242 255 263 167 169 162 175 186 164 154 148 150 156 157 149 135 139 136 144 150 148
214 223 220 216 234 226 247 252 201 225 229 224 216 223 222 155 140 213 135 139 143 145 146 152 148 140 143 143 147 151 153 153
218 228 232 216 232 227 230 236 218 245 246 231 241 280 271 154 193 140 138 139 138 142 144 137 141 143 144 148 154 150 141 135
216 217 227 241 222 225 216 170 218 215 219 222 229 257 283 102 107 119 126 131 136 137 132 136 139 144 149 150 136 131 130 127
213 220 279 234 262 287 163 154 211 251 276 205 213 214 230 128 128 133 135 138 137 134 135 135 142 146 146 129 130 131 127 137
251 233 242 253 292 298 353 193 192 223 253 263 248 211 134 133 138 142 143 146 146 139 139 136 138 138 125 132 131 131 135 136
248 255 284 246 274 270 238 16 44 22 346 306 298 188 139 142 145 147 146 151 139 143 138 138 131 126 136 137 141 143 141 149
213 228 241 269 241 254 245 205 207 222 244 271 284 129 134 141 143 144 149 145 137 140 136 135 130 136 141 149 159 155 156 166
202 253 217 247 314 247 255 277 281 265 191 256 256 155 140 139 138 138 142 140 144 144 136 133 141 142 154 166 159 169 182 148